Weather History for Indian Mountain, AK

Change the Weather History Date:

Friday, November 23, 2012

  Actual Average Record
Temperature  
Mean Temperature 8 °F -  
Max Temperature 10 °F 9 °F 34 °F (2007)
Min Temperature 5 °F 0 °F -20 °F (2006)
Degree Days  
Heating Degree Days 58    
Moisture  
Dew Point -10 °F    
Average Humidity 44    
Maximum Humidity 56    
Minimum Humidity 35    
Precipitation  
Precipitation 0.00 in - - ()
Sea Level Pressure  
Sea Level Pressure 30.24 in    
Wind  
Wind Speed 19 mph (East)    
Max Wind Speed 31 mph    
Max Gust Speed 47 mph    
Visibility 10 miles    
Events      
Averages and records for this station are not official NWS values.
T = Trace of Precipitation, MM = Missing Value Source: NWS Daily Summary

Daily Weather History Graph

Daily Weather History Graph

Search for Another Location

Airport:

Trip Planner

Search our weather history database for the weather conditions in past years. The results will help you decide how hot, cold, wet, or windy it might be!

Date:

Astronomy

Nov. 23, 2012 Rise Set
Actual Time 10:35 AM AKST 3:27 PM AKST
Civil Twilight 9:19 AM AKST 4:42 PM AKST
Nautical Twilight 8:09 AM AKST 5:52 PM AKST
Astronomical Twilight 7:08 AM AKST 6:53 PM AKST
Moon 2:25 PM AKST (11/23) 4:15 AM AKST (11/23)
Length of Visible Light 7h 23m
Length of Day
4h 51m
Waxing Gibbous, 81% of the Moon is Illuminated
Nov 23
Waxing Gibbous
Nov 28
Full
Dec 6
Last Quarter
Dec 12
New
Dec 19
First Quarter

Hourly Weather History & Observations

Time (AKST) Temp. Windchill Dew Point Humidity Pressure Visibility Wind Dir Wind Speed Gust Speed Precip Events Conditions
12:55 AM 5.5 °F -12.9 °F -7.2 °F 56% 30.24 in 10.0 mi East 16.1 mph 34.5 mph N/A   Clear
1:55 AM 6.3 °F -15.0 °F -7.6 °F 53% 30.22 in 10.0 mi East 23.0 mph 39.1 mph N/A   Clear
3:55 AM 8.1 °F -15.2 °F -8.0 °F 48% 30.19 in 10.0 mi East 31.1 mph 44.9 mph N/A   Clear
4:55 AM 7.3 °F -15.5 °F -8.0 °F 50% 30.17 in 10.0 mi East 28.8 mph 43.7 mph N/A   Clear
5:55 AM 7.9 °F -13.3 °F -8.1 °F 48% 30.16 in 10.0 mi ENE 24.2 mph 47.2 mph N/A   Clear
6:55 AM 7.5 °F -11.4 °F -8.7 °F 48% 30.19 in 10.0 mi East 18.4 mph 35.7 mph N/A   Clear
7:55 AM 7.7 °F -14.3 °F -9.2 °F 46% 30.19 in 10.0 mi East 26.5 mph 41.4 mph N/A   Clear
8:55 AM 7.9 °F -12.8 °F -9.8 °F 45% 30.21 in 10.0 mi ENE 23.0 mph 40.3 mph N/A   Clear
9:55 AM 7.5 °F -10.9 °F -10.1 °F 45% 30.22 in 10.0 mi East 17.3 mph 35.7 mph N/A   Clear
10:55 AM 6.4 °F -9.8 °F -10.7 °F 46% 30.24 in 10.0 mi East 12.7 mph 26.5 mph N/A   Clear
11:55 AM 6.3 °F -9.2 °F -10.8 °F 45% 30.24 in 10.0 mi East 11.5 mph 26.5 mph N/A   Clear
12:55 PM 7.3 °F -9.3 °F -10.3 °F 45% 30.25 in 10.0 mi East 13.8 mph 25.3 mph N/A   Clear
1:55 PM 7.7 °F -11.7 °F -10.1 °F 44% 30.23 in 10.0 mi East 19.6 mph 36.8 mph N/A   Clear
2:55 PM 8.1 °F -9.0 °F -10.3 °F 43% 30.24 in 10.0 mi East 15.0 mph 27.6 mph N/A   Clear
3:55 PM 8.4 °F -7.9 °F -10.8 °F 41% 30.25 in 10.0 mi East 13.8 mph 25.3 mph N/A   Clear
4:55 PM 8.1 °F -8.4 °F -11.4 °F 41% 30.25 in 10.0 mi East 13.8 mph 24.2 mph N/A   Clear
5:55 PM 7.0 °F -6.6 °F -11.9 °F 42% 30.26 in 10.0 mi ENE 9.2 mph 20.7 mph N/A   Clear
6:55 PM 7.5 °F -7.7 °F -12.5 °F 40% 30.27 in 10.0 mi East 11.5 mph 23.0 mph N/A   Clear
7:55 PM 8.1 °F -9.0 °F -12.6 °F 39% 30.27 in 10.0 mi East 15.0 mph 25.3 mph N/A   Clear
8:55 PM 8.6 °F -8.3 °F -13.2 °F 37% 30.27 in 10.0 mi East 15.0 mph 20.7 mph N/A   Clear
9:55 PM 10.0 °F -7.1 °F -13.0 °F 35% 30.27 in 10.0 mi East 16.1 mph 34.5 mph N/A   Clear
10:55 PM 9.1 °F -4.9 °F -13.2 °F 36% 30.28 in 10.0 mi East 10.4 mph 25.3 mph N/A   Clear
11:55 PM 9.1 °F -4.9 °F -12.8 °F 36% 30.30 in 10.0 mi East 10.4 mph 19.6 mph N/A   Clear